Regional Weather Roundup
Issued by NWS

Home | Current Version | Previous Version | Graphics & Text | Print | Product List | Glossary On
Versions: 1 2 3 4 5 6 7 8 9 10 11 12 13 14 15 16 17 18 19 20 21 22 23 24 25 26 27 28 29 30 31 32 33 34 35 36 37 38 39 40 41 42 43 44 45 46 47 48 49 50
579
ASUS43 KMPX 240301
RWRMN
WEATHER ROUNDUP FOR MINNESOTA
NATIONAL WEATHER SERVICE TWIN CITIES/CHANHASSEN MN
900 PM CST THU NOV 23 2017


NOTE: "FAIR" INDICATES FEW OR NO CLOUDS BELOW 12,000 FEET WITH NO
SIGNIFICANT WEATHER AND/OR OBSTRUCTIONS TO VISIBILITY. N/A MEANS
CURRENT SKY AND/OR WEATHER CONDITIONS ARE NOT AVAILABLE.

MNZ060>063-068>070-240400-
   Twin Cities Metro

CITY           SKY/WX    TMP DP  RH WIND       PRES   REMARKS
TWIN CITIES    PTCLDY    38  29  70 S6        29.65F
ST PAUL        CLEAR     38  29  70 SE9       29.67F
CRYSTAL        CLEAR     42  27  55 S9        29.63F
BLAINE         PTCLDY    43  30  61 S10       29.64F
LAKEVILLE      CLEAR     41  30  65 S13       29.66F
EDEN PRAIRIE   PTCLDY    44  30  57 S13       29.64F
SOUTH ST PAUL  CLEAR     39  28  63 SE6       29.67F
LAKE ELMO      FAIR      37  30  75 S12       29.66F
$$
MNZ001>005-007-008-013>017-022>024-027-028-240400-
   Northwest Minnesota

CITY           SKY/WX    TMP DP  RH WIND       PRES   REMARKS
BEMIDJI        PTCLDY    38  31  77 S8        29.43F
HALLOCK        MOCLDY    37  34  87 S13       29.29F
ROSEAU         PTCLDY    36  30  80 S12       29.30F
WARROAD        CLOUDY    30  27  86 S5        29.31F WCI  25
CROOKSTON      CLEAR     41  34  75 S17       29.37F
FOSSTON        CLEAR     41  34  75 S15       29.41F
DETROIT LAKES  CLEAR     37  32  81 S8        29.47F
MOORHEAD       PTCLDY    41  32  70 S12       29.45F
PARK RAPIDS    CLEAR     35  29  78 S7        29.48F WCI  29
MAHNOMEN       FAIR      43  33  70 S18       29.43F
$$
MNZ006-009>011-018-025>026-240400-
   North Central Minnesota

CITY           SKY/WX    TMP DP  RH WIND       PRES   REMARKS
BAUDETTE       PTCLDY    30  25  81 S8        29.34F WCI  22
FLAG ISLAND    PTCLDY    28  25  86 S18       29.30F WCI  16
INTL FALLS     PTCLDY    33  24  69 S7        29.40F WCI  27
WASKISH        PTCLDY    37  30  75 S10G18    29.38F
BIG FORK       PTCLDY    37  28  70 S9G16     29.44F
LONGVILLE      PTCLDY    37  28  70 S8        29.48F
CRANE LAKE     PTCLDY    30  25  80 CALM      29.48F
ORR            CLOUDY    34  25  69 S9        29.43F WCI  26
COOK           PTCLDY    34  27  75 S7        29.48F WCI  28
WALKER         FAIR      39  30  70 SW6       29.46F
$$
MNZ012-019>021-037-240400-
   Northeast Minnesota

CITY           SKY/WX    TMP DP  RH WIND       PRES   REMARKS
DULUTH         CLOUDY    35  25  66 SW15      29.55F WCI  25
ELY            CLOUDY    34  25  69 S10       29.51F WCI  26
HIBBING        MOCLDY    33  24  69 S8        29.51F WCI  26
EVELETH        PTCLDY    32  23  69 S5        29.53F WCI  28
DULUTH HARBOR  PTCLDY    37  27  65 SW7       29.59F
TWO HARBORS    CLOUDY    34  27  75 CALM      29.55F
SILVER BAY     PTCLDY    30  28  93 CALM      29.57F
GRAND MARAIS     N/A     38  31  76 S10       29.61F
G MARAIS ARPRT MOCLDY    28  25  86 SE5       29.56F WCI  23
$$
MNZ029>031-032-039>041-046>048-054>057-064-240400-
   West Central Minnesota

CITY           SKY/WX    TMP DP  RH WIND       PRES   REMARKS
FERGUS FALLS   CLOUDY    39  32  75 S10       29.52F
WHEATON        CLOUDY    52  37  58 SW10G17   29.52F
MORRIS         PTCLDY    43  34  70 S10       29.53F
ALEXANDRIA     CLOUDY    44  33  65 S9        29.54F
ELBOW LAKE     FAIR      40  33  75 S14       29.52F
WADENA         CLEAR     36  30  80 S9        29.49F
GLENWOOD       CLOUDY    43  34  70 S8        29.56F
APPLETON       MOCLDY    46  36  66 S6        29.55F
BENSON         PTCLDY    43  34  70 S8        29.57F
ORTONVILLE     MOCLDY    52  39  62 N6        29.54F
MADISON        CLOUDY    54  39  58 SW10      29.55F
WILLMAR        FAIR      37  32  81 SE7       29.59F
$$
MNZ033>034-036-042>043-049>051-058-059-240400-
   Central Minnesota

CITY           SKY/WX    TMP DP  RH WIND       PRES   REMARKS
ST CLOUD       CLEAR     39  30  70 S9        29.59F
SAUK CENTRE    FAIR      40  32  74 S7        29.56F
PAYNESVILLE    CLOUDY    43  33  68 S8        29.59F
AITKIN         CLEAR     34  27  75 S6        29.53F WCI  29
PINE RIVER     CLEAR     30  27  86 S6        29.55F WCI  24
BRAINERD       CLEAR     37  28  70 S9        29.55F
STAPLES        CLEAR     36  28  75 S6        29.52F
LITTLE FALLS   CLEAR     36  25  64 SE5       29.57F
LITCHFIELD     PTCLDY    43  34  70 S5        29.61F
BUFFALO        CLOUDY    42  30  62 S8        29.63F
MAPLE LAKE     CLOUDY    43  32  66 S8        29.62F
HUTCHINSON     MOCLDY    41  32  70 S9        29.63F
$$
MNZ037-044-045-052-053-240400-
   East Central Minnesota

CITY           SKY/WX    TMP DP  RH WIND       PRES   REMARKS
PRINCETON      CLEAR     41  30  65 S6        29.61F
MORA           CLEAR     34  27  75 S5        29.63F WCI  30
CAMBRIDGE      CLEAR     41  28  60 S7        29.62F
RUSH CITY      CLEAR     37  27  65 S8        29.62F
MOOSE LAKE     CLEAR     34  25  69 SW8       29.57F WCI  27
HINCKLEY       FAIR      36  28  75 S6        29.61F
CLOQUET        CLEAR     36  23  60 S10       29.56F
MCGREGOR       CLEAR     34  28  80 S7        29.55F WCI  28
$$
MNZ071>073-080-081-089-090-097-098-240400-
   Southwest Minnesota

CITY           SKY/WX    TMP DP  RH WIND       PRES   REMARKS
MONTEVIDEO     PTCLDY    46  36  66 SW9       29.56F
GRANITE FALLS  CLOUDY    44  36  71 S9        29.59F
CANBY          CLOUDY    55  40  55 SW18G24   29.58F
MARSHALL       CLOUDY    53  38  56 SW25      29.57F
REDWOOD FALLS  CLEAR     45  33  63 S13       29.61F
OLIVIA         CLEAR     41  32  70 S8        29.60F
PIPESTONE      PTCLDY    48  36  61 SW10      29.64F
WINDOM         PTCLDY    48  30  49 S15G23    29.65F
WORTHINGTON    MOCLDY    50  37  61 S20       29.67F
JACKSON        PTCLDY    45  34  65 S13       29.69F
SLAYTON        PTCLDY    48  37  64 S16       29.67F
$$
MNZ065>067-074>077-082>085-091>093-240400-
   South Central Minnesota

CITY           SKY/WX    TMP DP  RH WIND       PRES   REMARKS
MANKATO        CLEAR     41  30  65 S12       29.68F
NEW ULM        CLEAR     43  30  61 CALM      29.64F
ST JAMES       CLEAR     43  30  61 S14       29.67F
FAIRMONT       PTCLDY    40  31  70 S10       29.70F
GLENCOE        CLEAR     43  32  65 S13       29.63F
FARIBAULT      CLEAR     37  28  70 S7        29.69F
OWATONNA       CLEAR     43  30  61 S17       29.70F
WASECA         CLEAR     41  32  70 S14       29.72F
ALBERT LEA     CLEAR     43  28  56 S12       29.73F
$$
MNZ078>079-086>088-094>096-240400-
   Southeast Minnesota

CITY           SKY/WX    TMP DP  RH WIND       PRES   REMARKS
ROCHESTER      CLEAR     37  29  72 S16       29.74F
RED WING       CLEAR     41  25  52 S3        29.70F
STANTON        CLEAR     43  31  63 S12G18    29.67F
DODGE CENTER   CLEAR     41  28  60 S21       29.71F
WINONA         CLOUDY    37  28  70 CALM      29.76F
AUSTIN         CLEAR     36  28  75 S9        29.75F
PRESTON        CLEAR     38  27  63 S17       29.76F
$$
ABBREVIATIONS USED IN REMARKS
   TC - TEMPERATURES IN CELSIUS
  WCI - WIND CHILL INDEX
   HX - HEAT INDEX
  VSB - VISIBILITY
$$




USA.gov is the U.S. government's official web portal to all federal, state and local government web resources and services.